Location: Eindhoven
(51.4416°N, 5.4697°E)
Time: 19:51:36
(UTC+01:00)

Transit 4A - All Passes

Search period start: 18 November 2019 00:00
Search period end: 28 November 2019 00:00
Orbit: 869 x 976 km, 66.8° (Epoch: 18 November)

Date Brightness Start Highest point End Pass type
(mag) Time Alt. Az. Time Alt. Az. Time Alt. Az.
18 Nov - 00:44:04 10° WSW 00:49:50 39° NW 00:55:30 10° NNE night (unlit)
18 Nov - 02:33:31 10° WNW 02:37:55 20° N 02:42:13 10° NE visible
18 Nov - 04:21:58 10° NNW 04:26:29 21° NNE 04:30:57 10° ENE visible
18 Nov - 06:08:32 10° NNW 06:14:20 48° NE 06:19:58 10° ESE visible
18 Nov - 07:55:06 10° NW 08:00:41 44° WSW 08:06:10 10° S daylight
18 Nov - 21:22:33 10° SSE 21:26:50 20° ESE 21:31:03 10° ENE night (unlit)
18 Nov - 23:06:09 10° SSW 23:12:25 85° SE 23:18:32 10° NE night (unlit)
19 Nov - 00:53:58 10° W 00:59:27 32° NNW 01:04:50 10° NNE night (unlit)
19 Nov - 02:43:31 10° NW 02:47:44 19° N 02:51:52 10° NE visible
19 Nov - 04:31:27 10° NNW 04:36:16 24° NNE 04:40:59 10° ENE visible
19 Nov - 06:17:52 10° NW 06:23:49 62° NE 06:29:35 10° SE visible
19 Nov - 08:04:42 10° NW 08:09:50 32° WSW 08:14:53 10° S daylight
19 Nov - 21:30:45 10° SSE 21:35:53 27° ESE 21:40:56 10° NE night (unlit)
19 Nov - 23:15:32 10° SW 23:21:47 74° NW 23:27:53 10° NE night (unlit)
20 Nov - 01:03:58 10° W 01:09:08 27° NNW 01:14:11 10° NNE night (unlit)
20 Nov - 02:53:26 10° NW 02:57:34 18° N 03:01:39 10° NE visible
20 Nov - 04:40:52 10° NNW 04:45:58 28° NNE 04:50:59 10° E visible
20 Nov - 06:27:14 10° NW 06:33:13 82° NE 06:39:03 10° SE visible
20 Nov - 08:14:28 10° WNW 08:18:54 22° WSW 08:23:16 10° SSW daylight
20 Nov - 21:39:19 10° S 21:45:00 38° ESE 21:50:35 10° NE night (unlit)
20 Nov - 23:25:06 10° WSW 23:31:13 57° NW 23:37:13 10° NE night (unlit)
21 Nov - 01:14:02 10° WNW 01:18:51 23° NNW 01:23:36 10° NNE visible
21 Nov - 03:03:13 10° NW 03:07:25 19° N 03:11:32 10° NE visible
21 Nov - 04:50:15 10° NNW 04:55:38 33° NNE 05:00:54 10° E visible
21 Nov - 06:36:36 10° NW 06:42:33 75° WSW 06:48:21 10° SSE visible
21 Nov - 08:24:36 10° WNW 08:27:53 15° WSW 08:31:09 10° SW daylight
21 Nov - 20:08:49 10° ESE 20:09:09 10° E 20:09:29 10° E night (unlit)
21 Nov - 21:48:11 10° SSW 21:54:12 52° ESE 22:00:06 10° NE night (unlit)
21 Nov - 23:34:48 10° WSW 23:40:44 45° NW 23:46:32 10° NNE night (unlit)
22 Nov - 01:24:07 10° WNW 01:28:38 21° NNW 01:33:05 10° NNE visible
22 Nov - 03:12:52 10° NW 03:17:14 20° NNE 03:21:31 10° ENE visible
22 Nov - 04:59:35 10° NNW 05:05:14 41° NE 05:10:44 10° ESE visible
22 Nov - 06:46:02 10° NW 06:51:49 55° WSW 06:57:27 10° SSE visible
22 Nov - 20:14:38 10° SE 20:18:05 15° ESE 20:21:30 10° ENE night (unlit)
22 Nov - 21:57:15 10° SSW 22:03:28 71° ESE 22:09:32 10° NE night (unlit)
22 Nov - 23:44:39 10° W 23:50:18 36° NW 23:55:51 10° NNE night (unlit)
23 Nov - 01:34:10 10° NW 01:38:27 19° N 01:42:41 10° NE visible
23 Nov - 03:22:25 10° NNW 03:27:02 22° NNE 03:31:33 10° ENE visible
23 Nov - 05:08:55 10° NNW 05:14:45 52° NE 05:20:27 10° ESE visible
23 Nov - 06:55:34 10° NW 07:01:00 39° WSW 07:06:20 10° S visible
23 Nov - 20:22:29 10° SSE 20:27:06 22° ESE 20:31:38 10° ENE night (unlit)
23 Nov - 22:06:33 10° SW 22:12:48 87° NW 22:18:55 10° NE night (unlit)
23 Nov - 23:54:36 10° W 23:59:57 30° NNW 00:05:11 10° NNE night (unlit)
24 Nov - 01:44:08 10° NW 01:48:17 19° N 01:52:22 10° NE visible
24 Nov - 03:31:53 10° NNW 03:36:46 25° NNE 03:41:35 10° ENE visible
24 Nov - 05:18:15 10° NW 05:24:13 69° NE 05:30:01 10° SE visible
24 Nov - 07:05:13 10° NW 07:10:06 28° WSW 07:14:56 10° SSW visible
24 Nov - 20:30:50 10° S 20:36:11 31° ESE 20:41:26 10° NE night (unlit)
24 Nov - 22:16:00 10° SW 22:22:11 67° NW 22:28:14 10° NE night (unlit)
25 Nov - 00:04:37 10° W 00:09:38 25° NNW 00:14:34 10° NNE night (unlit)
25 Nov - 01:54:00 10° NW 01:58:08 18° N 02:02:12 10° NE visible
25 Nov - 03:41:17 10° NNW 03:46:28 29° NNE 03:51:33 10° E visible
25 Nov - 05:27:37 10° NW 05:33:35 90° SSW 05:39:25 10° SE visible
25 Nov - 07:15:05 10° WNW 07:19:09 20° WSW 07:23:11 10° SSW visible
25 Nov - 20:39:31 10° S 20:45:20 42° ESE 20:51:01 10° NE night (unlit)
25 Nov - 22:25:37 10° WSW 22:31:40 52° NW 22:37:34 10° NNE night (unlit)
26 Nov - 00:14:42 10° WNW 00:19:23 22° NNW 00:24:00 10° NNE night (unlit)
26 Nov - 02:03:44 10° NW 02:07:58 19° N 02:12:07 10° NE visible
26 Nov - 03:50:38 10° NNW 03:56:06 36° NE 04:01:27 10° E visible
26 Nov - 05:37:01 10° NW 05:42:54 67° WSW 05:48:39 10° SSE visible
26 Nov - 07:25:27 10° WNW 07:28:07 13° WSW 07:30:46 10° SW visible
26 Nov - 19:07:15 10° ESE 19:09:23 12° E 19:11:29 10° E night (unlit)
26 Nov - 20:48:27 10° SSW 20:54:33 58° ESE 21:00:30 10° NE visible
26 Nov - 22:35:22 10° WSW 22:41:11 41° NW 22:46:52 10° NNE night (unlit)
27 Nov - 00:24:47 10° WNW 00:29:11 20° NNW 00:33:31 10° NE night (unlit)
27 Nov - 02:13:21 10° NNW 02:17:46 21° NNE 02:22:07 10° ENE visible
27 Nov - 03:59:58 10° NNW 04:05:40 45° NE 04:11:15 10° ESE visible
27 Nov - 05:46:28 10° NW 05:52:08 48° WSW 05:57:40 10° S visible
27 Nov - 19:14:25 10° SE 19:18:20 18° ESE 19:22:13 10° ENE visible
27 Nov - 20:57:36 10° SSW 21:03:50 79° SE 21:09:55 10° NE visible
27 Nov - 22:45:15 10° W 22:50:47 33° NNW 22:56:13 10° NNE night (unlit)
